When you browse on this site, cookies collect data to enhance your experience and personalize the content and advertising you see.
Visit our Privacy Policy to learn more. By continuing to use the site, you agree to this use of cookies and data.
  • En España
  • Lista de países
  • Para 7 días
  • Temperatura del agua
  • Mapa Satelital
  • El tiempo en el mapa
  • Informadores
  • user-avatar
    Iniciar sesión

    Tiempo cada hora Kranevo

    Hoy, 20 Noviembre, Martes

    Tiempo Temperatura Precipitaciones Viento Presión Humedad
    00:00 +1°C° 0 mm 5 mps 760 mmHg 89%
    01:00 0°C° 0 mm 4 mps 760 mmHg 89%
    02:00 0°C° 0 mm 4 mps 760 mmHg 89%
    03:00 0°C° 0 mm 4 mps 761 mmHg 89%
    04:00 0°C° 0 mm 4 mps 761 mmHg 89%
    05:00 0°C° 0 mm 4 mps 761 mmHg 89%
    06:00 0°C° 0 mm 4 mps 761 mmHg 88%
    07:00 0°C° 0 mm 4 mps 762 mmHg 87%
    08:00 0°C° 0 mm 4 mps 762 mmHg 84%
    09:00 +1°C° 0 mm 4 mps 762 mmHg 78%
    10:00 +3°C° 0 mm 3 mps 762 mmHg 73%
    11:00 +4°C° 0 mm 3 mps 762 mmHg 67%
    12:00 +5°C° 0 mm 3 mps 762 mmHg 65%
    13:00 +5°C° 0 mm 3 mps 762 mmHg 63%
    14:00 +7°C° 0 mm 3 mps 761 mmHg 61%
    15:00 +7°C° 0 mm 3 mps 761 mmHg 65%
    16:00 +5°C° 0 mm 3 mps 761 mmHg 68%
    17:00 +5°C° 0 mm 4 mps 761 mmHg 72%
    18:00 +5°C° 0.1 mm 4 mps 761 mmHg 75%
    19:00 +5°C° 0.1 mm 4 mps 760 mmHg 77%
    20:00 +5°C° 0.1 mm 5 mps 760 mmHg 80%
    21:00 +5°C° 0.4 mm 5 mps 760 mmHg 83%
    22:00 +6°C° 0.4 mm 5 mps 760 mmHg 85%
    23:00 +6°C° 0.4 mm 5 mps 760 mmHg 88%

    Mañana, 21 Noviembre, Miércoles

    Tiempo Temperatura Precipitaciones Viento Presión Humedad
    00:00 +6°C° 1 mm 5 mps 759 mmHg 89%
    01:00 +5°C° 1 mm 6 mps 759 mmHg 91%
    02:00 +5°C° 1 mm 6 mps 759 mmHg 92%
    03:00 +5°C° 1 mm 6 mps 758 mmHg 93%
    04:00 +7°C° 1 mm 6 mps 758 mmHg 93%
    05:00 +7°C° 1 mm 6 mps 757 mmHg 94%
    06:00 +7°C° 1.1 mm 6 mps 757 mmHg 94%
    07:00 +6°C° 1.1 mm 7 mps 757 mmHg 94%
    08:00 +6°C° 1.1 mm 7 mps 756 mmHg 94%
    09:00 +8°C° 1.4 mm 7 mps 756 mmHg 94%
    10:00 +8°C° 1.4 mm 7 mps 756 mmHg 94%
    11:00 +8°C° 1.4 mm 7 mps 756 mmHg 93%
    12:00 +8°C° 1.3 mm 7 mps 756 mmHg 93%
    13:00 +7°C° 1.3 mm 8 mps 756 mmHg 92%
    14:00 +7°C° 1.3 mm 8 mps 756 mmHg 92%
    15:00 +7°C° 1 mm 8 mps 756 mmHg 92%
    16:00 +7°C° 1 mm 8 mps 756 mmHg 91%
    17:00 +7°C° 1 mm 8 mps 756 mmHg 91%
    18:00 +7°C° 0.4 mm 8 mps 756 mmHg 91%
    19:00 +7°C° 0.4 mm 8 mps 756 mmHg 90%
    20:00 +7°C° 0.4 mm 8 mps 756 mmHg 90%
    21:00 +7°C° 0.5 mm 8 mps 757 mmHg 90%
    22:00 +6°C° 0.5 mm 8 mps 757 mmHg 89%
    23:00 +6°C° 0.5 mm 8 mps 757 mmHg 89%

    Pasado mañana, 22 Noviembre, Jueves

    Tiempo Temperatura Precipitaciones Viento Presión Humedad
    00:00 +6°C° 0.5 mm 9 mps 757 mmHg 89%
    01:00 +6°C° 0.5 mm 9 mps 758 mmHg 89%
    02:00 +6°C° 0.5 mm 9 mps 758 mmHg 89%
    03:00 +6°C° 0.4 mm 9 mps 758 mmHg 88%
    04:00 +5°C° 0.4 mm 9 mps 758 mmHg 87%
    05:00 +5°C° 0.4 mm 8 mps 759 mmHg 86%
    06:00 +5°C° 0.2 mm 8 mps 759 mmHg 85%
    07:00 +5°C° 0.2 mm 8 mps 760 mmHg 84%
    08:00 +4°C° 0.2 mm 8 mps 760 mmHg 83%
    09:00 +4°C° 0.1 mm 8 mps 761 mmHg 82%
    10:00 +4°C° 0.1 mm 8 mps 761 mmHg 80%
    11:00 +5°C° 0.1 mm 7 mps 761 mmHg 78%
    12:00 +5°C° 0 mm 7 mps 761 mmHg 76%
    13:00 +5°C° 0 mm 7 mps 761 mmHg 74%
    14:00 +5°C° 0 mm 7 mps 761 mmHg 72%
    15:00 +5°C° 0 mm 6 mps 762 mmHg 72%
    16:00 +4°C° 0 mm 6 mps 762 mmHg 73%
    17:00 +3°C° 0 mm 6 mps 762 mmHg 74%
    18:00 +3°C° 0 mm 5 mps 762 mmHg 73%
    19:00 +2°C° 0 mm 5 mps 763 mmHg 73%
    20:00 +2°C° 0 mm 5 mps 763 mmHg 72%
    21:00 +1°C° 0 mm 5 mps 763 mmHg 73%
    22:00 +1°C° 0 mm 5 mps 764 mmHg 73%
    23:00 +1°C° 0 mm 5 mps 764 mmHg 73%

    23 Noviembre, Viernes

    Tiempo Temperatura Precipitaciones Viento Presión Humedad
    00:00 0°C° 0 mm 4 mps 764 mmHg 75%
    01:00 0°C° 0 mm 4 mps 764 mmHg 76%
    02:00 -1°C° 0 mm 4 mps 764 mmHg 77%
    03:00 -1°C° 0 mm 4 mps 764 mmHg 77%
    04:00 -1°C° 0 mm 4 mps 764 mmHg 78%
    05:00 -2°C° 0 mm 4 mps 764 mmHg 79%
    06:00 -2°C° 0 mm 4 mps 765 mmHg 78%
    07:00 -2°C° 0 mm 4 mps 765 mmHg 78%
    08:00 -2°C° 0 mm 4 mps 766 mmHg 77%
    09:00 0°C° 0 mm 4 mps 766 mmHg 70%
    10:00 +1°C° 0 mm 4 mps 766 mmHg 64%
    11:00 +3°C° 0 mm 4 mps 766 mmHg 57%
    12:00 +4°C° 0 mm 4 mps 766 mmHg 54%
    13:00 +5°C° 0 mm 4 mps 766 mmHg 52%
    14:00 +5°C° 0 mm 4 mps 766 mmHg 50%
    15:00 +4°C° 0 mm 4 mps 766 mmHg 53%
    16:00 +4°C° 0 mm 4 mps 766 mmHg 56%
    17:00 +3°C° 0 mm 4 mps 767 mmHg 59%
    18:00 +2°C° 0 mm 3 mps 767 mmHg 61%
    19:00 +2°C° 0 mm 3 mps 767 mmHg 62%
    20:00 +1°C° 0 mm 3 mps 767 mmHg 64%
    21:00 +1°C° 0 mm 3 mps 767 mmHg 65%
    22:00 +1°C° 0 mm 3 mps 767 mmHg 65%
    23:00 +1°C° 0 mm 3 mps 767 mmHg 66%

    24 Noviembre, Sábado

    Tiempo Temperatura Precipitaciones Viento Presión Humedad
    00:00 +1°C° 0 mm 3 mps 767 mmHg 66%
    01:00 +1°C° 0 mm 3 mps 767 mmHg 67%
    02:00 0°C° 0 mm 3 mps 767 mmHg 68%
    03:00 0°C° 0 mm 3 mps 767 mmHg 68%
    04:00 0°C° 0 mm 3 mps 766 mmHg 69%
    05:00 0°C° 0 mm 3 mps 766 mmHg 70%
    06:00 0°C° 0 mm 3 mps 766 mmHg 70%
    07:00 +2°C° 0 mm 2 mps 766 mmHg 70%
    08:00 +2°C° 0 mm 2 mps 766 mmHg 70%
    09:00 +3°C° 0 mm 2 mps 766 mmHg 69%
    10:00 +5°C° 0 mm 2 mps 766 mmHg 68%
    11:00 +6°C° 0 mm 2 mps 766 mmHg 66%
    12:00 +7°C° 0 mm 2 mps 765 mmHg 67%
    13:00 +8°C° 0 mm 2 mps 764 mmHg 67%
    14:00 +8°C° 0 mm 2 mps 764 mmHg 67%
    15:00 +8°C° 0 mm 2 mps 763 mmHg 72%
    16:00 +7°C° 0 mm 2 mps 763 mmHg 78%
    17:00 +7°C° 0 mm 1 mps 763 mmHg 83%
    18:00 +7°C° 0 mm 1 mps 763 mmHg 84%
    19:00 +6°C° 0 mm 1 mps 763 mmHg 85%
    20:00 +6°C° 0 mm 1 mps 763 mmHg 87%
    21:00 +6°C° 0 mm 1 mps 763 mmHg 87%
    22:00 +5°C° 0 mm 2 mps 762 mmHg 88%
    23:00 +5°C° 0 mm 2 mps 762 mmHg 88%

    25 Noviembre, Domingo

    Tiempo Temperatura Precipitaciones Viento Presión Humedad
    00:00 +5°C° 0 mm 2 mps 762 mmHg 88%
    01:00 +5°C° 0 mm 2 mps 761 mmHg 88%
    02:00 +5°C° 0 mm 2 mps 761 mmHg 88%
    03:00 +5°C° 0 mm 2 mps 760 mmHg 88%
    04:00 +5°C° 0 mm 2 mps 760 mmHg 88%
    05:00 +4°C° 0 mm 3 mps 760 mmHg 88%
    06:00 +4°C° 0 mm 3 mps 760 mmHg 88%
    07:00 +4°C° 0 mm 3 mps 759 mmHg 88%
    08:00 +4°C° 0 mm 3 mps 759 mmHg 88%
    09:00 +5°C° 0 mm 3 mps 759 mmHg 80%
    10:00 +7°C° 0 mm 4 mps 759 mmHg 72%
    11:00 +8°C° 0 mm 4 mps 759 mmHg 65%
    12:00 +10°C° 0 mm 4 mps 758 mmHg 62%
    13:00 +10°C° 0 mm 4 mps 757 mmHg 59%
    14:00 +11°C° 0 mm 4 mps 757 mmHg 56%
    15:00 +10°C° 0 mm 4 mps 757 mmHg 61%
    16:00 +8°C° 0 mm 4 mps 756 mmHg 65%
    17:00 +7°C° 0 mm 4 mps 756 mmHg 69%
    18:00 +7°C° 0 mm 4 mps 756 mmHg 71%
    19:00 +7°C° 0 mm 4 mps 756 mmHg 72%
    20:00 +7°C° 0 mm 4 mps 755 mmHg 74%
    21:00 +8°C° 0 mm 3 mps 755 mmHg 74%
    22:00 +7°C° 0 mm 3 mps 755 mmHg 75%
    23:00 +7°C° 0 mm 3 mps 755 mmHg 75%
    Mostrar más